This is the latest recevied weather packets stored in our database for station/object IU7URP-13. If no packets are shown the sender has not sent any weather packets the latest 10 day(s).
| Time | Temp. | Humidity | Pressure | Rain* | Wind** | Luminosity | Snow |
|---|---|---|---|---|---|---|---|
| 1777461195 | 25° C | 61% | 1018.4 hPa | - | - | - | - |
| 1777459994 | 24.44° C | 69% | 1018.6 hPa | - | - | - | - |
| 1777458792 | 25° C | 99% | 1018.8 hPa | - | - | - | - |
| 1777457591 | 23.89° C | 99% | 1019 hPa | - | - | - | - |
| 1777456389 | 23.89° C | 99% | 1019.3 hPa | - | - | - | - |
| 1777455188 | 23.89° C | 99% | 1019.4 hPa | - | - | - | - |
| 1777453987 | 23.33° C | 99% | 1019.6 hPa | - | - | - | - |
| 1777452785 | 23.33° C | 99% | 1019.6 hPa | - | - | - | - |
| 1777451584 | 24.44° C | 99% | 1019.7 hPa | - | - | - | - |
| 1777450383 | 22.78° C | 99% | 1019.8 hPa | - | - | - | - |
| 1777449182 | 23.33° C | 99% | 1019.7 hPa | - | - | - | - |
| 1777447980 | 21.67° C | 99% | 1019.8 hPa | - | - | - | - |
| 1777446779 | 21.67° C | 99% | 1019.9 hPa | - | - | - | - |
| 1777445578 | 20° C | 99% | 1019.9 hPa | - | - | - | - |
| 1777444376 | 19.44° C | 99% | 1020 hPa | - | - | - | - |
| 1777443175 | 18.89° C | 99% | 1020 hPa | - | - | - | - |
| 1777441974 | 18.33° C | 99% | 1020 hPa | - | - | - | - |
| 1777440772 | 18.89° C | 99% | 1020 hPa | - | - | - | - |
| 1777439571 | 18.33° C | 99% | 1019.9 hPa | - | - | - | - |
| 1777438370 | 17.22° C | 99% | 1019.8 hPa | - | - | - | - |
| 1777437169 | 16.67° C | 99% | 1019.8 hPa | - | - | - | - |
| 1777435967 | 15° C | 99% | 1019.7 hPa | - | - | - | - |
| 1777434766 | 13.89° C | 99% | 1019.6 hPa | - | - | - | - |
| 1777433565 | 13.89° C | 99% | 1019.5 hPa | - | - | - | - |
| 1777432363 | 13.89° C | 99% | 1019.5 hPa | - | - | - | - |
* Rain since midnight (hover to see other rain measurements)
** Current wind speed in m/s (hover to see current wind gust speed)